Regional Weather Roundup
Issued by NWS

Home | Current Version | Previous Version | Text Only | Print | Product List | Glossary On
Versions: 1 2 3 4 5 6 7 8 9 10 11 12 13 14 15 16 17 18 19 20 21 22 23 24 25 26 27 28 29 30 31 32 33 34 35 36 37 38 39 40 41 42 43 44 45 46 47 48 49 50
000
ASUS44 KJAN 240220
RWRMS

MISSISSIPPI HOURLY WEATHER ROUNDUP
NATIONAL WEATHER SERVICE JACKSON MS
900 PM CDT TUE AUG 23 2016

NOTE: "FAIR: INDICATES FEW OR NO CLOUDS BELOW 12,000 FEET WITH NO
SIGNIFICANT WEATHER AND/OR OBSTRUCTIONS TO VISIBILITY.

MSZ001>002-007>008-010>013-018>021-025>028-034>036-240300-
NORTHWEST MISSISSIPPI

CITY           SKY/WX    TMP DP  RH WIND       PRES   REMARKS
CLEVELAND      FAIR      80  80 100 CALM      30.13R
GREENWOOD      CLEAR     81  76  84 CALM      30.13S
GREENVILLE     CLEAR     82  78  88 SE3       30.13R HX  91
OXFORD         FAIR      77  73  88 CALM      30.18R
TUNICA         PTCLDY    75  72  88 S5        30.14R
$$

MSZ003>006-009-014>017-022>024-029>033-037>039-240300-
NORTHEAST MISSISSIPPI

CITY           SKY/WX    TMP DP  RH WIND       PRES   REMARKS
ABERDEEN       FAIR      77  61  57 CALM      30.17S
COLUMBUS AFB   CLEAR     81  77  89 SE2       30.16R
GOLDN TRIANGLE CLEAR     82  72  69 SE7       30.16S
TUPELO         CLEAR     83  72  69 E5        30.16R
$$

MSZ040-058-240300-
CENTRAL MISSISSIPPI

CITY           SKY/WX    TMP DP  RH WIND       PRES   REMARKS
JACKSON INTL   CLOUDY    79  74  84 CALM      30.16R
JACKSON HAWKNS PTCLDY    80  74  81 CALM      30.17R
MADISON        FAIR      77  75  94 CALM      30.16R
MERIDIAN KEY   PTCLDY    80  75  84 CALM      30.17R
MERIDIAN NAS   PTCLDY    81  74  79 CALM      30.17R
$$

MSZ059>079-240300-
SOUTH MISSISSIPPI

CITY           SKY/WX    TMP DP  RH WIND       PRES   REMARKS
BROOKHAVEN     FAIR     N/A N/A N/A CALM      30.19R
HATTIESBURG    MOCLDY    83  76  79 CALM      30.16R HX  91
MCCOMB         PTCLDY    79  74  84 CALM      30.17R
NATCHEZ        CLOUDY    79  72  78 SE5       30.15R
PINE BELT      CLEAR     79  70  73 CALM      30.18R
$$

MSZ080>082-240300-
COASTAL MISSISSIPPI

CITY           SKY/WX    TMP DP  RH WIND       PRES   REMARKS
BAY ST LOUIS   PTCLDY    79  72  78 CALM      30.15R
BILOXI         PTCLDY    83  78  83 NE2       30.14R HX  93
PASCAGOULA     MOCLDY    81  81 100 CALM      30.15R HX  92
GULFPORT       CLEAR     81  77  88 N5        30.14R
$$

LAZ007>009-015>016-023>026-240300-
NORTHEAST LOUISIANA

CITY           SKY/WX    TMP DP  RH WIND       PRES   REMARKS
BASTROP        FAIR      78  77  98 CALM      30.13S
TALLULAH/VBURG MOCLDY    82  76  81 SE5       30.14R
$$



USA.gov is the U.S. government's official web portal to all federal, state and local government web resources and services.